Commerce, GA

2:05 AM EDT on August 26, 2016 (GMT -0400)
Jefferson

Weather History for K19A - January, 2014

Change the Weather History Date:

Monday, January 13, 2014

  Actual Average (KGVL) Record (KGVL)
Temperature  
Mean Temperature 46 °F 41 °F  
Max Temperature 59 °F 50 °F 76 °F (1932)
Min Temperature 33 °F 33 °F 14 °F (1962)
Degree Days  
Heating Degree Days 19 24  
Month to date heating degree days 312  
Since 1 July heating degree days 1508  
Moisture  
Dew Point 34 °F    
Average Humidity 68    
Maximum Humidity 100    
Minimum Humidity 29    
Precipitation  
Precipitation 0.00 in 0.15 in 1.40 in (1993)
Month to date precipitation 1.74  
Year to date precipitation 1.74  
Sea Level Pressure  
Sea Level Pressure 30.06 in    
Wind  
Wind Speed 1 mph (SSW)    
Max Wind Speed 10 mph    
Max Gust Speed -    
Visibility 9 miles    
Events Rain    
T = Trace of Precipitation, MM = Missing Value Source: NWS Daily Summary

Daily Weather History Graph

Daily Weather History Graph

Search for Another Location

Airport or City:

Trip Planner

Search our weather history database for the weather conditions in past years. The results will help you decide how hot, cold, wet, or windy it might be!

Date:

Astronomy

Jan. 13, 2014 Rise Set
Actual Time 7:40 AM EST 5:45 PM EST
Civil Twilight 7:13 AM EST 6:13 PM EST
Nautical Twilight 6:42 AM EST 6:44 PM EST
Astronomical Twilight 6:11 AM EST 7:14 PM EST
Moon 3:59 PM EST (1/13) 5:29 AM EST (1/13)
Length of Visible Light 11h 00m
Length of Day
10h 05m
Waxing Gibbous, 95% of the Moon is Illuminated
Jan 13
Waxing Gibbous
Jan 15
Full
Jan 24
Last Quarter
Jan 30
New
Feb 6
First Quarter

Hourly Weather History & Observations

Time (EST) Temp. Windchill Dew Point Humidity Pressure Visibility Wind Dir Wind Speed Gust Speed Precip Events Conditions
12:15 AM 42.8 °F - 28.4 °F 57% 30.16 in 10.0 mi Calm Calm - N/A   Clear
12:35 AM 41.0 °F - 30.2 °F 65% 30.16 in 10.0 mi Calm Calm - N/A   Clear
12:55 AM 41.0 °F - 30.2 °F 65% 30.15 in 10.0 mi Calm Calm - N/A   Clear
1:15 AM 41.0 °F - 30.2 °F 65% 30.15 in 10.0 mi Calm Calm - N/A   Clear
1:35 AM 41.0 °F - 30.2 °F 65% 30.16 in 10.0 mi Calm Calm - N/A   Clear
1:55 AM 37.4 °F - 30.2 °F 75% 30.16 in 10.0 mi Calm Calm - N/A   Clear
2:15 AM 37.4 °F - 30.2 °F 75% 30.16 in 10.0 mi Calm Calm - N/A   Clear
2:35 AM 37.4 °F - 30.2 °F 75% 30.16 in 10.0 mi Calm Calm - N/A   Clear
2:55 AM 37.4 °F - 30.2 °F 75% 30.16 in 10.0 mi Calm Calm - N/A   Clear
3:15 AM 37.4 °F - 30.2 °F 75% 30.16 in 10.0 mi Calm Calm - N/A   Clear
3:35 AM 37.4 °F - 30.2 °F 75% 30.16 in 10.0 mi Calm Calm - N/A   Clear
3:55 AM 41.0 °F - 30.2 °F 65% 30.16 in 10.0 mi Calm Calm - N/A   Clear
4:15 AM 35.6 °F - 30.2 °F 81% 30.16 in 10.0 mi Calm Calm - N/A   Clear
4:35 AM 37.4 °F - 32.0 °F 81% 30.16 in 10.0 mi Calm Calm - N/A   Clear
4:55 AM 35.6 °F - 30.2 °F 81% 30.16 in 10.0 mi Calm Calm - N/A   Clear
5:15 AM 35.6 °F - 32.0 °F 87% 30.16 in 10.0 mi Calm Calm - N/A   Clear
5:35 AM 35.6 °F - 32.0 °F 87% 30.15 in 10.0 mi Calm Calm - N/A   Clear
5:55 AM 35.6 °F - 32.0 °F 87% 30.13 in 10.0 mi Calm Calm - N/A   Clear
6:15 AM 35.6 °F - 32.0 °F 87% 30.12 in 10.0 mi Calm Calm - N/A   Clear
6:35 AM 33.8 °F - 32.0 °F 93% 30.12 in 10.0 mi Calm Calm - N/A   Clear
6:55 AM 33.8 °F - 32.0 °F 93% 30.10 in 10.0 mi Calm Calm - N/A   Clear
7:15 AM 33.8 °F - 32.0 °F 93% 30.10 in 10.0 mi Calm Calm - N/A   Clear
7:35 AM 33.8 °F - 32.0 °F 93% 30.10 in 10.0 mi Calm Calm - N/A   Clear
7:55 AM 33.8 °F - 32.0 °F 93% 30.12 in 10.0 mi Calm Calm - N/A   Clear
8:15 AM 33.8 °F - 32.0 °F 93% 30.13 in 10.0 mi Calm Calm - N/A   Clear
8:35 AM 35.6 °F - 32.0 °F 87% 30.14 in 10.0 mi Calm Calm - N/A   Clear
8:55 AM 35.6 °F - 32.0 °F 87% 30.15 in 10.0 mi Calm Calm - N/A   Clear
9:15 AM 37.4 °F - 32.0 °F 81% 30.15 in 10.0 mi Calm Calm - N/A   Clear
9:35 AM 41.0 °F - 32.0 °F 70% 30.15 in 10.0 mi Calm Calm - N/A   Clear
9:55 AM 44.6 °F 42.2 °F 30.2 °F 57% 30.16 in 10.0 mi WSW 4.6 mph - N/A   Clear
10:15 AM 46.4 °F - 30.2 °F 53% 30.13 in 10.0 mi Calm Calm - N/A   Clear
10:35 AM 50.0 °F - 32.0 °F 50% 30.13 in 10.0 mi Calm Calm - N/A   Clear
10:55 AM 51.8 °F - 30.2 °F 44% 30.13 in 10.0 mi Calm Calm - N/A   Clear
11:15 AM 53.6 °F - 32.0 °F 44% 30.12 in 10.0 mi Calm Calm - N/A   Clear
11:35 AM 53.6 °F - 32.0 °F 44% 30.11 in 10.0 mi SW 3.5 mph - N/A   Clear
11:55 AM 53.6 °F - 32.0 °F 44% 30.09 in 10.0 mi Calm Calm - N/A   Clear
12:15 PM 53.6 °F - 30.2 °F 41% 30.08 in 10.0 mi SSW 4.6 mph - N/A   Clear
12:35 PM 55.4 °F - 28.4 °F 36% 30.06 in 10.0 mi SW 3.5 mph - N/A   Clear
12:55 PM 55.4 °F - 26.6 °F 33% 30.04 in 10.0 mi SSW 3.5 mph - N/A   Clear
1:15 PM 57.2 °F - 24.8 °F 29% 30.04 in 10.0 mi SW 10.4 mph - N/A   Clear
1:35 PM 55.4 °F - 23.0 °F 29% 30.03 in 10.0 mi SW 9.2 mph - N/A   Clear
1:55 PM 55.4 °F - 24.8 °F 31% 30.01 in 10.0 mi SSW 8.1 mph - N/A   Clear
2:15 PM 55.4 °F - 26.6 °F 33% 30.01 in 10.0 mi SSW 6.9 mph - N/A   Clear
2:35 PM 57.2 °F - 28.4 °F 33% 30.01 in 10.0 mi SSW 5.8 mph - N/A   Clear
2:55 PM 57.2 °F - 26.6 °F 31% 30.01 in 10.0 mi SSW 5.8 mph - N/A   Clear
3:15 PM 57.2 °F - 26.6 °F 31% 30.00 in 10.0 mi South 3.5 mph - N/A   Clear
3:35 PM 59.0 °F - 26.6 °F 29% 30.00 in 10.0 mi SW 4.6 mph - N/A   Clear
3:55 PM 57.2 °F - 26.6 °F 31% 30.00 in 10.0 mi South 5.8 mph - N/A   Clear
4:15 PM 57.2 °F - 24.8 °F 29% 29.98 in 10.0 mi SW 3.5 mph - N/A   Scattered Clouds
4:35 PM 57.2 °F - 26.6 °F 31% 29.98 in 10.0 mi Calm Calm - N/A   Overcast
4:55 PM 55.4 °F - 30.2 °F 38% 29.97 in 10.0 mi Calm Calm - N/A   Overcast
5:15 PM 55.4 °F - 30.2 °F 38% 29.96 in 10.0 mi Calm Calm - N/A Rain Rain
5:35 PM 53.6 °F - 32.0 °F 44% 29.96 in 10.0 mi Calm Calm - N/A Rain Light Rain
5:55 PM 53.6 °F - 33.8 °F 47% 29.98 in 10.0 mi Calm Calm - N/A Rain Light Rain
6:15 PM 50.0 °F - 41.0 °F 71% 29.98 in 7.0 mi Calm Calm - N/A Rain Light Rain
6:35 PM 50.0 °F - 44.6 °F 82% 29.98 in 10.0 mi Calm Calm - N/A Rain Rain
6:55 PM 50.0 °F - 44.6 °F 82% 29.98 in 10.0 mi ESE 4.6 mph - N/A Rain Light Rain
7:15 PM 50.0 °F - 46.4 °F 87% 29.98 in 10.0 mi Calm Calm - N/A Rain Rain
7:35 PM 48.2 °F - 46.4 °F 93% 29.99 in 7.0 mi Calm Calm - N/A Rain Light Rain
7:55 PM 48.2 °F - 46.4 °F 93% 29.99 in 5.0 mi Calm Calm - N/A Rain Rain
8:15 PM 48.2 °F - 46.4 °F 93% 29.98 in 7.0 mi Calm Calm - N/A Rain Rain
8:35 PM 48.2 °F - 46.4 °F 93% 29.98 in 7.0 mi Calm Calm - N/A Rain Light Rain
8:55 PM 48.2 °F - 46.4 °F 93% 29.98 in 7.0 mi Calm Calm - N/A Rain Rain
9:15 PM 48.2 °F - 46.4 °F 93% 29.97 in 3.0 mi Calm Calm - N/A Rain Rain
9:35 PM 48.2 °F - 46.4 °F 93% 29.96 in 4.0 mi Calm Calm - N/A   Heavy Drizzle
9:55 PM 48.2 °F - 46.4 °F 93% 29.96 in 4.0 mi Calm Calm - N/A   Light Drizzle
10:15 PM 48.2 °F - 46.4 °F 93% 29.95 in 7.0 mi Calm Calm - N/A   Overcast
10:35 PM 48.2 °F - 46.4 °F 93% 29.94 in 3.0 mi Calm Calm - N/A   Overcast
10:55 PM 48.2 °F - 46.4 °F 93% 29.93 in 2.5 mi Calm Calm - N/A   Light Drizzle
11:15 PM 48.2 °F - 46.4 °F 93% 29.92 in 2.0 mi Calm Calm - N/A   Drizzle
11:35 PM 46.4 °F - 46.4 °F 100% 29.91 in 2.0 mi Calm Calm - N/A   Overcast
11:55 PM 46.4 °F - 46.4 °F 100% 29.90 in 1.5 mi Calm Calm - N/A   Drizzle